User: anonymous
Location: Unspecified
(0.0000°N, 0.0000°E)
Time: 02:57:36
(UTC+00:00)
Language:

USA 186 - Orbit

View from above orbital plane
View from above orbital plane
View from above satellite
View from above satellite

Ground track
Ground track

The orbit data is extracted from the following two-line orbital elements,

1 28888U 05042A   14150.09565613 0.00028000  00000-0  24420-3 0    09
2 28888  96.8955 191.4434 0479622  17.1666 342.8333 14.91022728    03
Epoch (UTC): 30 May 2014 02:17:44
Eccentricity: 0.0479622
inclination: 96.8955°
perigee height: 260 km
apogee height: 929 km
right ascension of ascending node: 191.4434°
argument of perigee: 17.1666°
revolutions per day: 14.91022728
mean anomaly at epoch: 342.8333°
orbit number at epoch: 0

The dashed part of the orbit path shows where the satellite is in the earth's shadow,  

DLR